Wind_Speed
23 23 23 23 22 21 22 23 23 23 21 20 19 18 16 15 14 14 14 15 15 14 13 11 12 15 17 19 20 20 20 20 20 21 22 23 23 23 22 22 21 20 19 18 19 23 30 36 41 48 59 64 62 57 54 52 51 52 52 52 51 51 49 49 48 48 48 48 47 47 46 46 46 47 47 47 47 47 47 46 46 46 45 44 44 44
23 23 23 23 22 21 20 21 22 23 23 22 21 20 19 18 17 16 15 15 16 17 15 13 11 12 13 14 15 16 16 16 17 18 19 21 23 24 24 23 22 21 19 18 18 21 26 33 40 47 57 64 63 59 56 53 51 52 52 53 53 52 51 50 50 50 49 49 48 47 47 46 46 47 47 47 47 47 47 47 47 46 46 45 45 44
24 23 23 23 23 22 21 21 21 21 22 22 23 22 22 22 21 19 17 16 17 17 18 16 14 12 10 10 11 12 14 14 15 16 17 19 21 23 23 22 21 20 20 19 19 20 24 29 36 45 54 61 63 61 58 55 53 52 52 53 53 53 51 51 51 51 51 50 49 48 47 47 47 47 47 47 46 46 47 47 47 47 46 46 45 45
26 25 24 24 23 23 23 22 21 21 21 21 22 23 24 24 24 23 21 19 18 18 18 18 17 15 12 10 10 11 13 15 16 16 16 17 18 20 21 21 20 20 20 21 21 22 24 27 33 40 48 57 61 62 59 57 55 53 53 54 54 53 52 52 52 53 52 51 50 49 48 48 48 47 47 47 46 46 46 47 47 47 46 46 45 45
28 27 26 25 24 24 24 24 23 22 21 20 21 22 23 24 25 26 25 24 21 19 18 18 18 18 16 13 10 10 12 15 17 18 18 18 18 19 20 21 21 21 21 21 23 24 25 28 33 37 42 49 56 60 60 59 57 55 55 55 55 54 53 53 53 54 53 52 50 49 49 49 48 48 47 47 46 46 46 47 47 47 47 46 46 45
29 29 28 27 26 26 25 25 25 24 23 21 20 20 21 23 25 26 27 27 26 23 20 18 17 18 18 16 13 11 11 13 17 20 21 20 19 20 21 22 22 22 22 22 23 24 26 29 33 37 38 42 50 57 60 60 59 58 56 56 56 55 54 54 54 55 54 53 51 50 50 50 49 48 48 47 47 47 47 47 47 47 47 47 46 46
30 30 29 28 28 27 26 26 26 26 25 24 22 21 20 21 23 25 27 28 29 27 24 21 18 17 18 19 17 14 12 12 15 19 21 21 20 20 21 22 23 23 23 23 23 23 24 27 31 34 36 37 42 52 60 61 59 58 58 58 57 57 56 55 55 55 55 54 53 52 51 51 50 49 48 48 47 47 47 47 47 47 47 47 46 46
32 31 30 30 29 28 27 27 27 27 27 26 25 23 21 21 21 22 25 27 29 30 29 26 22 19 18 19 20 19 16 14 14 16 18 19 20 20 21 22 22 22 22 23 23 23 24 25 27 30 32 33 36 45 57 61 61 59 58 58 59 58 57 56 56 56 56 55 54 53 52 52 51 50 49 48 48 47 47 48 48 48 47 47 47 46
33 33 32 31 31 30 29 28 27 27 28 28 27 26 24 23 21 21 22 24 27 29 30 29 27 23 20 19 20 21 21 19 17 15 15 17 19 21 22 22 22 21 21 21 22 23 24 25 26 28 29 31 34 40 51 60 62 60 58 58 59 59 58 56 56 57 57 56 55 54 53 53 52 51 50 49 48 48 48 48 48 48 48 47 47 47
34 34 33 33 32 32 31 30 29 28 28 29 29 28 27 26 24 23 22 22 24 26 29 30 30 28 24 21 20 21 22 22 21 19 17 17 18 20 22 22 22 21 21 21 21 22 23 25 26 28 29 31 34 38 46 56 62 61 58 57 59 60 59 58 57 57 58 57 56 55 54 53 52 51 50 49 49 49 49 49 49 49 48 48 48 47
34 34 34 33 33 33 33 32 31 30 29 29 29 29 29 28 27 26 25 23 23 23 26 28 30 30 29 25 22 21 21 22 23 22 21 19 19 20 22 23 23 22 21 21 21 22 23 25 26 28 30 32 35 39 45 53 59 60 56 55 57 60 61 60 58 58 59 59 58 57 55 54 53 52 52 50 50 49 50 50 49 49 49 48 48 48
36 35 35 35 34 34 34 33 33 32 31 31 30 29 29 29 29 28 27 26 25 24 24 25 28 30 31 30 27 24 21 21 22 23 23 22 21 20 21 22 23 22 22 21 21 22 23 24 26 27 29 31 34 39 44 50 55 56 54 52 54 58 61 61 60 59 59 60 60 60 58 57 55 54 54 52 51 50 50 50 50 49 49 48 48 48
37 37 37 36 36 35 35 35 34 34 33 33 32 31 31 30 30 30 29 28 27 26 26 25 26 28 30 31 31 29 25 23 22 22 23 23 22 20 21 21 22 23 22 21 21 21 22 24 25 26 27 29 32 36 41 45 48 50 50 50 51 55 60 62 61 60 60 60 61 62 61 60 59 58 57 55 53 51 51 50 50 49 49 48 48 48
39 39 38 38 37 37 37 36 36 35 35 34 34 33 32 32 32 31 31 30 29 28 27 27 26 26 28 30 31 32 30 28 25 23 23 22 21 20 19 19 21 22 23 22 22 22 23 23 24 25 26 27 29 32 35 39 41 43 45 48 51 55 59 61 61 60 59 59 60 61 61 62 61 61 59 57 55 53 51 50 50 51 50 48 47 47
41 40 40 40 40 39 39 38 38 37 37 36 36 35 34 34 33 33 33 32 31 30 29 28 27 26 26 28 30 31 32 31 29 26 24 23 21 20 19 18 19 21 23 23 23 24 24 25 25 25 26 26 27 28 31 33 36 38 40 44 49 54 58 60 61 60 59 58 58 59 60 60 61 61 60 59 57 55 52 51 51 52 52 49 48 47
44 43 42 42 42 41 41 40 40 39 38 38 37 37 36 35 35 34 34 34 33 32 31 30 28 26 25 26 28 30 31 32 31 30 28 25 23 21 20 19 19 20 22 24 25 26 26 27 27 27 27 26 26 27 29 31 33 34 36 39 44 51 57 59 60 59 59 59 59 60 60 59 59 59 60 60 59 58 56 54 54 54 54 50 48 47
47 46 45 45 44 43 43 42 42 41 41 40 39 38 37 37 36 36 35 35 35 35 34 32 31 28 26 25 26 28 30 31 32 31 31 29 26 23 22 21 20 20 21 23 25 27 28 28 28 28 28 27 27 28 29 30 31 31 32 34 38 44 52 57 60 60 60 61 62 63 62 61 60 60 60 60 61 61 60 59 59 58 56 52 49 48
50 49 48 48 47 46 45 44 44 43 43 42 41 40 39 38 38 37 37 37 36 36 36 35 33 32 29 27 26 27 29 30 32 32 32 31 30 28 25 24 23 22 22 23 25 26 27 27 26 26 26 26 27 27 28 29 28 29 29 30 33 38 45 52 57 60 61 62 63 64 64 64 63 62 61 61 62 62 62 62 63 61 58 54 51 50
53 52 51 50 50 49 48 47 46 45 45 44 43 42 41 40 39 38 38 38 37 37 37 36 36 34 32 30 28 28 29 31 32 33 32 32 32 31 29 26 25 24 24 24 25 26 26 26 25 24 25 25 25 26 26 26 26 26 27 28 30 34 39 46 51 55 57 59 61 64 65 66 66 65 65 64 64 64 63 64 63 62 59 57 54 52
55 55 54 53 52 52 51 50 48 48 47 46 45 44 43 42 41 40 39 39 39 38 38 38 37 37 35 33 30 29 29 31 33 33 33 31 32 32 32 30 28 26 25 25 26 26 26 26 26 26 27 27 27 27 26 25 24 24 25 26 28 32 36 42 46 49 51 53 56 60 64 66 67 68 67 67 67 67 66 65 65 63 62 60 59 57
57 56 56 55 54 54 53 52 51 50 49 48 47 46 45 44 43 42 41 40 40 39 39 39 39 38 37 35 33 31 31 31 33 34 34 32 30 31 32 33 31 29 27 26 27 27 28 28 28 29 29 29 29 29 28 27 26 24 24 25 26 29 33 38 43 46 48 48 50 53 58 62 66 68 69 70 70 70 69 69 68 68 67 66 65 63
58 58 58 57 56 55 55 54 53 52 51 50 49 48 47 46 45 44 43 42 41 40 40 40 39 39 39 37 35 33 33 32 33 34 35 34 31 29 30 31 32 32 30 29 28 28 29 30 30 30 29 28 29 29 29 29 28 26 25 25 26 27 30 33 38 43 46 47 47 47 49 54 59 63 66 68 69 70 70 71 72 72 71 71 69 67
60 59 59 58 57 57 56 56 55 54 53 52 51 50 49 48 47 46 45 44 43 42 41 41 40 40 40 39 37 36 35 34 34 35 35 35 34 31 29 29 31 32 33 32 31 30 31 32 32 32 31 29 28 28 29 30 30 29 28 27 26 26 27 30 34 39 43 45 45 44 44 46 50 54 57 59 60 62 64 67 69 71 73 73 72 70
61 61 60 59 58 57 57 56 56 55 55 54 53 52 51 50 49 48 47 46 45 44 43 42 42 41 41 40 39 38 36 36 35 35 36 36 36 34 31 30 30 31 33 34 34 33 32 33 34 34 34 32 30 28 28 29 30 31 30 29 28 27 27 28 30 34 38 42 43 43 42 43 45 48 50 50 51 51 53 55 59 63 67 72 73 72
62 62 62 61 60 58 57 57 56 55 55 55 54 53 52 51 50 49 48 47 46 45 44 44 43 43 42 41 40 39 38 37 37 37 37 37 37 35 33 32 31 31 32 33 35 35 35 35 35 36 36 35 33 32 30 29 29 30 31 31 31 29 28 28 29 31 34 36 38 39 39 41 43 46 47 46 46 45 45 46 48 51 56 63 68 70
63 63 63 62 61 60 58 57 56 55 55 54 54 53 53 52 51 50 49 48 47 46 46 45 44 44 43 42 41 40 39 39 38 38 38 38 37 37 35 34 34 33 32 32 34 35 36 36 36 36 36 37 36 35 34 32 31 30 30 31 32 32 31 29 29 30 31 33 34 36 37 39 42 44 45 45 43 42 42 42 43 45 48 53 60 64
63 63 63 62 61 60 59 58 56 55 54 53 53 53 53 52 52 51 50 49 48 47 46 46 45 45 44 43 43 42 41 40 39 39 39 39 38 38 37 36 35 34 34 33 34 34 35 36 37 37 37 37 37 37 36 35 34 33 31 31 32 33 33 32 31 31 31 32 33 34 36 38 40 42 43 43 42 41 40 40 41 43 45 48 53 59
63 63 62 62 61 60 59 58 56 54 53 51 51 51 51 51 51 50 50 49 48 47 46 46 46 45 45 44 44 43 42 41 40 40 40 39 39 39 38 37 36 35 35 35 35 35 35 35 36 37 38 38 37 37 37 37 37 36 35 33 33 33 34 34 34 33 32 32 32 33 34 35 37 38 40 40 40 39 38 39 40 42 44 46 50 55
62 62 61 61 60 60 59 58 56 54 52 50 48 48 49 49 49 49 50 49 48 47 47 47 46 46 45 45 45 44 43 42 42 41 40 40 40 41 40 38 37 37 37 37 36 36 35 35 36 36 37 38 38 38 38 37 38 38 37 36 35 34 34 35 35 36 36 35 34 34 33 33 33 34 35 37 38 38 37 38 39 41 44 46 48 52
62 61 61 60 60 59 58 57 56 54 52 49 47 46 46 47 47 48 48 48 47 47 47 47 46 46 46 46 46 45 45 44 43 42 41 41 42 42 41 39 39 39 38 38 37 37 37 37 36 36 37 38 38 38 38 38 38 38 38 38 38 37 36 35 36 37 37 38 38 37 36 34 33 33 33 34 35 36 36 37 38 40 43 45 47 50
62 60 60 59 59 58 57 56 55 54 52 50 47 45 44 44 45 45 46 47 47 47 46 46 46 46 46 46 46 47 46 46 44 43 42 42 43 43 41 40 40 40 39 38 38 39 39 38 37 36 37 37 38 39 39 39 39 39 39 39 39 39 38 37 37 36 37 38 39 40 40 39 38 36 35 35 35 35 36 37 38 40 42 44 47 49
60 59 58 57 56 55 54 54 53 52 51 49 47 45 43 42 42 42 43 44 45 45 45 45 46 46 46 46 47 47 47 46 45 44 44 44 44 44 42 42 41 41 40 39 40 40 40 39 37 37 37 37 38 39 39 39 39 39 39 39 40 40 40 40 39 37 37 37 38 40 41 42 42 41 40 39 38 38 37 37 38 40 42 44 46 48
59 58 56 55 53 52 51 51 50 49 49 48 46 44 42 41 39 39 40 41 42 43 44 45 45 46 46 47 47 48 47 47 46 46 46 46 45 45 44 43 43 42 41 40 41 41 41 40 39 38 37 37 38 38 39 39 40 40 40 40 40 41 41 41 41 40 39 38 37 38 39 41 43 44 44 43 43 42 41 41 41 41 43 44 46 47
57 56 55 53 51 50 49 47 46 46 46 46 45 43 42 40 38 37 37 38 40 41 43 44 44 45 46 46 47 47 47 47 47 48 48 47 47 46 45 45 44 43 42 42 42 42 42 41 40 39 38 38 38 38 38 39 40 40 41 41 41 41 41 42 42 42 42 40 39 38 37 38 40 42 43 44 45 45 45 44 44 44 44 45 45 46
54 53 52 51 49 47 46 44 43 43 43 43 42 42 41 39 37 36 36 36 37 39 41 43 44 44 45 46 47 47 47 47 48 48 48 48 48 48 47 46 45 44 43 43 43 42 42 42 42 41 40 39 38 37 38 38 39 40 41 41 42 42 42 42 43 43 44 43 42 40 38 37 37 38 40 41 43 44 45 46 46 47 47 47 46 46
50 50 50 48 47 45 43 42 40 39 39 40 40 40 39 38 37 36 35 35 36 38 40 41 43 44 45 46 46 47 47 48 48 48 49 49 49 49 48 48 47 46 45 44 44 43 43 43 43 42 41 40 39 38 38 38 38 39 40 41 42 42 43 43 43 44 44 45 44 43 42 39 38 37 37 38 39 41 43 44 46 47 48 49 49 49
48 48 47 46 45 44 42 41 39 37 36 36 37 37 37 37 36 35 35 35 36 38 39 41 42 43 44 45 46 47 47 48 48 49 50 50 50 50 49 49 48 47 46 46 45 45 44 44 44 43 43 42 41 39 38 37 37 38 39 41 41 42 43 43 44 44 45 45 45 45 44 43 41 39 37 37 37 39 40 42 43 45 47 49 50 51
46 46 45 44 43 43 42 40 38 36 35 34 34 35 36 36 36 35 35 35 36 37 39 41 43 44 44 45 46 46 47 47 48 49 50 51 51 51 51 50 49 48 47 47 46 46 45 45 45 44 44 44 42 40 38 37 37 38 39 40 41 42 42 43 44 44 45 45 46 46 46 45 44 43 41 39 39 39 39 41 42 43 45 46 49 50
45 44 44 43 42 42 41 40 39 37 35 34 34 34 35 36 36 35 35 35 35 37 39 41 43 45 46 46 46 46 47 47 48 49 51 51 51 51 51 51 50 49 48 48 47 46 46 46 46 46 45 44 43 41 40 38 38 38 38 39 40 41 42 43 44 44 45 45 45 46 46 46 46 46 44 43 42 41 41 41 42 43 43 44 46 48
44 43 43 42 42 41 41 40 39 38 36 35 34 34 35 35 36 36 36 35 35 37 39 41 44 46 47 47 48 48 48 48 49 50 51 51 52 52 52 52 51 50 49 48 48 47 47 47 47 46 46 45 44 43 41 40 39 38 38 38 39 40 41 42 43 44 45 45 45 46 46 46 47 47 46 46 45 44 43 43 43 43 44 44 44 45
43 43 42 42 41 41 40 40 40 38 37 36 35 35 35 35 36 36 36 36 36 37 38 41 44 46 48 48 49 49 49 49 50 50 51 52 52 52 53 52 52 51 50 50 49 49 48 48 47 47 46 46 45 44 43 41 40 39 38 38 39 40 41 41 42 43 44 44 45 45 46 46 47 47 47 47 47 46 45 45 44 44 44 44 43 43
42 42 42 41 41 40 40 40 39 39 38 37 37 36 36 35 36 36 36 36 36 37 38 40 43 46 48 50 50 50 50 50 51 51 52 52 53 53 53 53 53 52 51 51 51 50 49 49 48 47 47 46 46 45 44 43 41 40 39 39 40 40 40 40 41 42 43 44 45 45 46 46 46 47 47 47 48 47 47 46 46 45 45 44 43 43
42 42 41 41 40 40 40 40 39 39 39 38 38 37 36 35 35 36 36 37 37 37 38 39 42 45 47 50 51 51 51 51 52 52 53 53 53 54 54 54 53 53 52 52 51 51 51 50 49 48 47 47 47 46 45 44 42 41 40 40 40 39 39 40 41 41 42 43 44 45 45 46 46 47 47 47 48 48 48 48 47 47 46 45 44 44
42 42 41 41 41 40 40 39 39 39 39 38 38 37 36 35 35 36 37 37 38 38 38 39 41 43 46 48 50 51 52 52 52 53 53 54 54 54 54 54 54 54 53 53 52 52 51 50 49 49 48 47 47 47 47 45 44 42 42 41 40 40 40 41 40 40 41 42 43 44 45 45 46 46 47 47 47 48 48 48 48 48 47 47 46 45
43 42 42 41 41 41 40 40 39 39 38 38 37 37 36 35 35 36 37 37 38 38 38 39 40 42 44 46 48 50 52 52 53 53 54 54 55 55 55 55 55 54 54 53 53 52 51 50 50 49 48 48 48 48 47 46 45 44 43 42 41 41 41 41 40 40 40 42 42 43 44 45 46 46 46 47 47 47 47 48 48 48 48 48 47 47
43 43 42 42 42 41 41 40 40 39 38 38 37 37 36 35 35 36 36 37 38 38 39 39 40 41 43 45 46 48 50 52 53 54 54 54 54 55 55 55 55 55 54 54 54 53 52 51 50 49 48 48 48 49 48 47 46 45 44 42 42 41 41 40 40 40 41 41 42 43 43 44 45 46 46 46 47 46 47 47 47 47 48 48 48 48
43 42 42 42 42 42 41 41 40 39 39 38 37 36 36 35 35 35 36 37 37 38 39 39 40 41 42 43 44 45 47 50 52 54 54 54 54 54 55 55 55 55 54 54 54 53 52 52 51 49 48 48 49 49 49 48 46 45 44 43 42 42 41 40 40 40 41 41 41 42 43 44 44 45 46 46 46 46 46 46 47 47 47 48 48 48
41 41 42 42 41 41 41 41 40 40 39 39 38 37 36 35 35 35 36 36 37 37 38 39 40 40 42 42 43 43 45 48 50 52 54 54 54 54 54 54 54 54 54 54 54 54 53 52 51 50 49 49 49 49 48 47 46 46 45 44 43 42 42 41 40 40 40 40 41 41 42 43 44 45 46 46 45 46 46 46 46 46 46 47 47 48
40 40 41 41 40 40 40 40 39 39 39 39 38 37 36 36 35 36 36 36 37 37 38 39 39 40 41 41 42 42 43 45 48 50 52 53 54 54 54 54 53 53 53 53 54 54 54 53 52 51 51 50 49 49 48 47 46 46 45 44 43 42 42 41 40 39 39 39 40 41 42 43 44 45 45 44 45 45 45 45 45 45 45 46 46 47
40 40 40 40 39 39 39 39 39 38 38 38 38 37 37 36 36 36 36 36 36 37 37 38 39 40 40 41 41 41 42 43 45 47 50 52 53 53 53 53 53 52 52 52 53 53 53 53 53 53 52 51 49 48 48 47 47 46 45 44 43 43 42 40 39 39 39 39 39 40 41 42 43 44 44 44 44 45 45 44 44 44 44 45 45 46
39 39 39 39 38 38 38 38 37 37 37 37 37 37 37 36 36 36 36 36 36 37 37 38 39 39 40 40 40 40 40 41 42 45 47 50 51 52 52 52 52 51 51 51 52 52 52 53 53 53 53 52 50 49 47 47 46 46 45 44 44 42 41 40 39 38 38 38 39 39 40 41 42 42 43 43 44 44 44 43 43 43 43 44 44 44
Wind_Direction
323 323 322 322 322 319 315 310 307 304 300 295 292 291 291 292 289 284 276 270 268 268 269 262 248 239 238 241 242 242 242 241 241 241 239 236 234 234 239 247 254 258 258 255 248 244 246 250 247 235 221 215 214 215 217 219 223 225 226 226 226 227 227 228 229 229 228 227 226 226 225 226 226 227 227 227 227 227 228 229 229 230 230 230 231 231
319 320 320 319 319 318 315 311 308 305 302 299 295 291 289 289 288 286 282 276 272 272 275 277 268 250 238 239 241 240 237 235 233 233 233 230 229 230 235 245 254 259 261 258 251 244 241 247 247 239 226 218 215 214 216 218 221 224 226 227 227 227 227 228 229 229 228 227 226 225 225 226 226 227 227 227 227 227 228 228 229 229 230 230 230 231
317 317 317 317 317 316 314 311 308 306 303 300 297 294 291 289 287 285 283 280 276 273 273 276 277 270 256 248 244 241 236 231 229 228 230 229 229 229 232 241 252 261 265 264 259 250 243 243 243 238 228 220 216 214 215 217 220 223 225 226 227 227 228 227 228 228 228 227 225 225 225 225 226 226 227 227 227 227 227 228 229 229 229 229 230 230
317 316 316 315 315 315 313 311 309 306 303 300 297 294 292 290 288 286 284 282 279 276 274 274 276 278 277 266 252 242 237 232 229 228 230 231 232 232 232 237 246 256 264 267 265 260 252 247 244 239 232 223 218 215 215 216 218 221 224 226 227 228 228 227 227 227 227 226 225 224 225 225 225 226 227 227 227 227 227 228 228 228 228 229 229 229
318 317 316 315 315 314 313 311 309 307 303 300 297 294 292 290 288 286 284 283 281 278 275 274 273 275 278 276 266 252 242 236 232 230 230 231 233 233 233 236 240 248 255 262 266 265 261 256 252 247 241 230 223 218 217 216 217 219 222 224 226 227 227 226 226 226 226 226 225 225 225 225 225 226 226 227 227 227 227 228 228 228 228 228 228 229
317 317 317 316 315 314 313 312 310 307 304 300 296 293 291 290 289 287 285 284 282 279 277 275 272 271 272 273 273 265 251 243 237 234 232 234 236 237 238 239 240 244 248 253 259 262 263 262 259 257 253 244 232 224 220 218 217 218 220 222 224 225 225 225 225 225 225 225 226 226 225 225 225 225 226 226 227 227 227 228 228 228 228 228 228 229
315 316 316 316 315 314 313 313 311 308 305 301 297 292 289 288 288 288 288 286 283 281 278 275 272 269 267 267 269 268 260 251 243 239 237 239 242 246 247 247 246 245 244 246 250 254 258 262 262 263 263 259 245 231 223 220 219 219 220 221 223 224 224 224 224 224 224 224 225 226 226 226 225 225 226 226 227 227 227 228 228 228 228 228 228 228
314 314 314 314 314 313 312 312 311 309 307 304 300 294 288 285 284 285 287 286 285 283 280 277 274 270 265 262 262 263 263 258 251 245 243 243 246 251 254 256 253 248 243 243 244 247 251 255 260 263 266 267 257 240 228 222 221 220 221 221 223 224 225 224 224 224 224 225 225 225 226 226 226 225 225 226 226 227 227 228 228 228 228 228 228 228
313 313 313 313 313 312 311 310 309 309 307 306 303 299 293 287 282 280 282 285 286 285 283 280 277 273 267 262 258 257 258 256 254 251 249 247 247 249 253 256 255 251 244 241 241 243 246 250 254 258 262 264 260 247 233 225 221 221 221 222 223 225 226 226 225 224 225 225 225 225 225 225 225 225 225 225 226 226 227 227 228 228 229 228 228 228
312 312 312 312 311 311 311 310 309 308 307 306 305 302 299 294 287 282 279 280 283 285 285 284 281 278 272 266 259 254 251 250 250 250 250 250 249 249 250 252 253 251 246 242 241 242 245 247 250 253 256 258 256 248 237 228 223 221 221 222 223 224 226 226 226 225 225 225 226 226 225 225 225 225 225 225 225 225 226 227 227 228 228 229 229 228
310 310 310 310 310 310 309 309 308 307 306 305 304 303 301 298 294 289 284 280 279 281 283 284 284 282 278 272 264 255 248 245 244 244 245 248 250 250 248 249 250 249 246 243 241 242 244 247 250 252 254 254 251 245 237 229 224 222 222 222 222 223 224 226 226 226 225 225 226 226 226 226 226 226 226 225 225 224 225 226 226 227 228 229 229 228
307 308 308 308 309 308 308 307 306 306 305 304 303 301 300 299 297 294 290 285 282 279 280 282 283 283 282 278 272 264 254 245 240 239 239 242 245 248 249 248 248 247 246 244 242 242 244 247 250 253 254 253 250 244 237 230 225 222 222 222 222 222 223 224 225 226 226 226 226 226 227 227 227 227 227 226 225 224 224 225 226 226 227 228 229 229
305 305 306 306 306 307 306 306 305 305 304 303 302 301 300 298 297 295 292 289 286 283 281 281 282 283 283 281 278 273 266 254 244 237 235 236 239 243 246 246 246 245 245 244 243 241 241 243 247 252 255 254 251 245 238 232 227 225 223 222 221 220 221 223 224 225 226 226 227 227 227 228 228 228 228 227 226 225 225 225 226 227 227 228 229 229
304 304 304 304 304 304 304 304 304 304 303 302 301 300 299 298 297 296 294 291 288 285 283 282 281 282 283 283 281 278 273 265 255 244 236 233 234 236 240 243 242 242 242 242 241 239 236 235 237 242 248 252 252 247 241 236 232 230 228 225 222 220 219 221 222 224 226 227 228 228 229 229 229 229 229 228 227 226 225 226 227 228 228 229 230 230
304 303 303 303 302 302 302 302 303 303 302 302 301 300 298 297 297 296 294 292 290 287 284 282 280 280 282 283 283 281 277 272 266 256 244 235 232 232 234 236 238 239 239 239 239 237 235 232 230 231 235 241 246 248 246 242 240 238 235 230 225 222 220 219 220 222 224 226 228 229 229 230 230 230 230 229 228 226 225 226 227 228 229 229 230 231
304 304 303 302 302 301 301 301 301 301 301 300 300 299 298 297 296 295 293 292 290 288 285 283 280 278 277 279 281 282 280 277 272 265 256 244 236 232 230 230 232 235 236 237 237 237 235 233 231 229 229 230 234 240 245 248 247 245 241 236 231 226 222 220 220 220 222 223 225 227 228 230 231 231 231 230 229 226 224 225 226 228 228 229 230 232
304 303 303 302 301 301 300 300 299 299 299 299 299 298 297 296 295 294 292 291 290 288 287 285 282 279 275 273 275 278 279 278 276 271 265 255 245 237 231 228 227 229 232 235 236 236 236 235 234 232 230 229 230 234 240 246 250 250 246 242 236 230 225 222 221 221 222 223 225 226 226 228 229 231 232 231 230 228 226 225 226 227 228 229 230 231
302 302 302 302 301 300 300 299 299 298 298 297 297 297 296 295 294 293 292 290 289 288 287 286 284 281 278 274 271 271 273 275 275 273 270 264 256 247 238 231 226 225 227 231 234 236 236 237 237 236 235 234 233 235 238 243 247 249 248 245 240 234 228 225 223 223 225 225 226 226 226 226 227 229 231 232 232 231 229 227 227 228 228 229 230 229
301 301 301 301 300 300 299 299 298 297 297 296 296 296 295 295 294 292 291 289 288 287 286 285 284 282 280 277 273 271 271 271 272 272 271 268 263 257 249 239 230 224 223 225 229 232 234 236 238 239 240 240 239 238 239 241 243 246 247 245 242 236 231 227 225 225 226 227 227 227 226 226 227 227 229 230 231 231 231 230 230 229 229 229 228 227
300 300 300 300 299 299 299 298 298 297 296 296 295 295 295 294 293 292 290 288 286 285 284 283 282 281 280 279 276 274 272 270 269 269 269 268 267 264 259 251 241 230 223 221 223 226 229 232 235 238 241 241 241 240 239 239 240 241 242 243 241 238 233 228 225 225 225 226 227 227 227 227 228 228 228 229 229 229 230 230 230 230 229 227 226 224
299 299 299 298 298 298 298 297 297 296 296 295 295 294 294 293 292 291 290 288 286 284 282 281 280 280 279 279 277 275 273 271 269 268 267 266 266 265 264 260 253 243 232 224 221 221 223 227 231 235 237 238 238 238 238 238 238 238 239 239 239 238 235 231 227 225 223 223 224 226 227 228 229 229 229 229 229 228 228 228 228 228 227 226 225 224
297 297 297 297 297 297 297 296 296 295 295 295 294 294 293 292 291 290 289 288 286 284 281 280 278 278 277 277 276 274 273 272 270 268 266 265 263 262 262 262 259 254 246 236 227 222 221 223 228 232 236 236 235 234 235 236 237 238 239 239 239 238 236 234 230 227 225 223 222 223 226 228 230 231 232 232 231 231 230 229 229 228 228 227 226 224
295 295 295 295 295 295 295 295 295 295 294 294 293 293 292 291 291 290 289 287 286 284 282 279 277 276 275 274 273 273 272 272 270 269 267 265 262 260 259 260 260 258 255 249 241 232 225 223 226 230 235 237 237 235 233 233 234 236 238 239 240 239 238 235 233 230 227 224 222 222 224 227 231 233 235 235 236 236 236 235 235 234 233 231 229 226
294 294 294 294 294 293 293 293 293 293 293 293 292 292 291 290 290 289 288 287 286 284 282 279 277 274 273 271 271 271 271 271 271 270 268 266 263 261 259 258 258 258 257 255 251 244 236 229 227 228 232 236 238 238 236 233 232 233 235 238 239 240 239 237 234 231 229 226 224 223 224 228 232 235 237 238 239 240 241 241 240 240 239 237 233 230
293 293 293 293 292 292 292 292 292 291 291 292 291 291 290 290 289 288 287 286 285 284 282 279 277 274 271 270 269 268 268 269 269 269 268 266 264 262 261 259 257 255 254 255 254 252 247 240 235 231 231 234 236 239 239 238 235 233 232 234 236 238 239 238 235 231 228 227 226 227 228 231 234 236 238 240 242 243 244 244 243 242 240 238 235 231
291 291 292 292 292 291 291 291 290 290 290 290 290 290 290 289 288 287 287 286 285 283 281 279 276 274 272 269 267 266 265 266 266 266 266 266 265 263 261 259 257 255 253 252 253 253 251 248 244 240 236 235 235 237 239 240 239 237 234 232 233 235 237 237 235 232 228 225 225 227 230 233 235 237 239 242 244 245 246 245 245 243 241 238 234 230
290 290 290 290 290 291 290 290 290 290 289 289 289 288 288 288 287 287 286 285 284 282 280 278 276 274 272 269 266 264 262 262 263 264 264 264 264 263 261 260 258 256 254 251 250 250 250 249 248 246 243 240 238 237 238 239 240 240 238 235 233 232 233 235 235 234 231 228 226 226 228 231 234 236 239 242 245 246 246 246 245 245 243 240 235 231
288 288 289 289 289 289 289 289 289 289 289 288 287 287 286 286 286 286 285 284 283 281 279 277 276 274 271 268 265 263 261 260 260 261 262 262 262 262 261 260 259 257 255 252 250 248 247 247 247 247 246 245 243 241 239 239 239 240 240 239 236 233 232 232 233 234 234 233 231 229 229 230 232 235 238 241 244 245 245 245 245 245 244 241 237 233
287 287 287 288 288 288 288 288 288 288 288 288 287 285 285 284 284 284 284 283 282 280 278 276 275 273 271 268 265 263 260 258 257 258 259 260 260 260 260 259 259 257 255 253 250 248 246 245 245 245 245 245 244 243 242 240 240 240 240 240 239 237 234 232 231 232 233 234 235 234 233 233 233 234 236 239 242 244 245 245 244 244 243 241 239 235
286 286 286 286 287 287 287 287 288 288 287 287 286 285 284 283 282 282 282 281 280 278 276 275 274 272 270 268 265 263 260 257 255 255 256 257 258 258 258 258 258 257 256 254 252 249 247 245 244 243 242 243 243 242 242 241 240 239 239 240 240 240 238 235 233 231 232 233 235 236 236 236 236 236 237 239 241 244 245 246 245 244 243 242 240 237
286 286 286 286 286 286 287 287 287 287 287 286 285 284 283 281 281 280 280 279 278 277 275 274 272 270 268 266 265 262 259 257 254 253 253 254 255 255 256 256 256 256 256 255 254 251 248 245 244 243 242 242 241 241 241 240 239 239 239 239 239 240 240 239 237 234 232 232 232 234 235 236 237 237 238 239 241 243 245 246 246 246 245 243 242 239
286 286 286 286 286 286 287 287 287 287 286 286 285 284 282 280 279 277 277 276 275 275 273 272 270 268 267 265 263 261 259 257 255 253 252 252 252 253 254 254 255 255 255 254 254 253 251 247 244 243 242 242 241 240 240 240 239 239 238 238 238 238 239 239 239 237 235 233 232 232 233 234 235 236 237 239 240 241 243 244 245 245 245 244 243 242
286 286 286 287 287 287 286 286 286 286 286 285 284 283 281 279 277 275 273 272 272 271 270 269 268 266 265 263 262 260 259 257 255 253 251 250 250 250 251 252 252 253 253 253 253 252 252 249 246 243 242 241 241 240 240 240 239 239 238 238 237 238 238 239 239 239 238 236 234 233 232 232 233 234 236 237 238 239 240 241 242 243 243 243 243 243
286 287 287 287 287 287 286 286 285 285 284 284 283 283 281 279 276 273 270 268 267 266 266 265 264 263 262 261 260 259 258 256 254 252 251 250 249 249 249 249 250 251 251 251 252 252 252 251 249 246 243 241 240 240 240 240 239 239 238 238 238 237 238 238 239 239 239 238 237 235 233 232 232 232 233 234 236 237 238 238 239 240 240 240 241 241
286 287 287 287 288 287 287 286 285 284 283 283 282 282 280 278 275 271 267 264 262 262 261 261 261 260 260 259 258 257 256 254 253 252 251 250 249 248 247 248 248 249 250 250 250 251 251 251 250 249 246 243 241 240 240 240 240 239 239 238 238 238 237 238 238 239 240 240 239 237 235 233 232 231 232 233 234 235 236 237 237 238 238 239 239 239
286 286 287 287 287 287 287 286 284 283 282 282 281 280 279 277 274 270 266 262 259 257 257 257 257 257 257 256 256 255 254 253 252 251 250 249 249 248 247 246 247 247 248 249 249 249 249 249 249 249 248 246 243 241 239 239 240 240 239 239 239 238 238 237 238 238 239 240 240 240 238 236 234 232 231 232 233 234 235 236 237 237 238 238 238 239
285 285 286 286 286 287 286 286 285 283 282 280 279 278 277 275 273 270 266 261 257 255 253 253 253 254 254 254 254 253 252 251 250 249 249 248 248 247 246 246 246 246 247 248 248 248 248 248 248 248 248 247 245 243 240 239 239 240 240 240 239 239 238 238 237 238 239 239 240 241 241 240 238 236 233 232 232 233 234 235 236 237 238 238 239 239
284 284 285 285 285 285 286 285 285 283 281 279 277 275 274 273 272 269 266 262 257 254 251 250 250 250 250 250 250 250 250 250 249 248 247 247 247 247 246 245 245 245 246 246 247 247 247 247 247 247 247 247 246 244 242 240 239 239 239 239 239 239 238 238 238 238 238 239 239 240 241 241 241 239 237 235 234 234 235 236 236 236 237 238 239 239
283 283 283 284 284 284 284 284 283 282 280 278 275 273 272 271 270 269 266 262 258 254 251 249 248 247 247 247 247 247 247 247 247 246 246 246 246 246 246 245 245 245 245 245 246 246 246 246 246 246 246 246 246 245 244 242 240 239 239 239 239 239 239 238 238 238 238 238 238 239 240 240 241 241 240 239 238 237 238 238 238 238 238 238 238 238
281 282 282 283 283 283 283 283 282 281 280 277 275 272 270 269 269 268 266 263 259 255 251 249 247 246 245 245 245 245 245 245 245 245 245 245 245 245 245 245 245 244 244 245 245 245 245 245 245 245 245 245 245 245 244 243 241 240 239 239 239 239 239 239 238 238 238 238 238 238 238 239 240 240 241 240 240 239 239 240 241 241 241 240 239 238
281 281 281 281 281 282 281 281 281 280 279 277 275 272 270 269 268 268 266 264 261 257 253 250 248 246 245 244 243 243 243 243 243 243 243 244 244 244 244 244 244 244 244 244 244 244 244 244 244 244 244 245 245 245 244 243 242 241 240 239 239 238 239 239 239 239 238 238 238 238 238 238 238 239 240 240 240 240 239 240 241 242 243 243 241 239
279 280 280 280 280 280 279 279 279 279 278 277 275 273 271 269 269 268 267 265 263 259 256 253 250 248 247 245 244 242 242 242 242 242 242 243 243 243 244 244 244 244 244 244 244 244 243 244 243 243 243 244 244 244 244 243 242 242 241 240 239 238 238 239 239 239 239 239 239 238 238 238 237 238 238 239 239 239 239 239 240 241 242 243 243 242
278 278 278 278 278 278 278 278 277 277 276 276 274 273 272 270 269 268 267 266 264 261 258 255 253 250 248 246 244 243 242 241 241 241 242 242 242 243 244 244 244 244 244 245 244 244 243 243 243 243 243 243 244 244 244 243 242 242 241 241 240 239 239 238 239 239 240 240 239 239 238 238 238 238 238 238 238 239 239 239 239 239 240 241 242 242
278 278 278 278 277 277 277 277 276 276 275 275 274 273 272 271 270 269 268 266 265 263 261 258 255 253 250 248 245 243 242 241 241 241 241 242 242 243 243 244 244 244 244 245 245 245 244 244 243 243 243 243 243 243 243 243 242 241 241 241 241 240 239 238 238 238 239 240 240 240 239 239 238 238 238 238 238 238 239 239 239 238 239 239 240 241
278 278 278 278 277 277 277 276 276 275 275 274 274 273 272 271 270 269 268 267 267 265 263 261 259 256 253 250 247 245 243 242 241 241 242 242 242 242 243 244 244 244 244 244 245 245 245 244 244 243 243 243 242 242 242 242 242 241 241 241 241 241 240 239 238 238 239 239 240 240 240 240 239 238 238 238 238 238 239 239 239 239 239 239 239 240
278 278 278 278 278 278 277 277 276 276 275 274 273 272 272 271 270 269 269 268 268 267 265 264 262 260 256 253 250 247 245 243 242 242 242 242 242 243 243 244 244 245 245 245 245 245 245 245 244 244 243 242 242 241 241 242 242 241 241 241 241 241 240 240 239 238 238 238 239 240 240 240 240 239 239 238 238 238 239 239 239 239 239 239 239 239
277 277 277 277 277 277 277 277 277 277 276 275 274 273 272 271 270 270 269 268 268 268 267 266 264 262 259 256 254 251 248 245 243 242 242 243 243 243 243 244 244 245 245 245 245 245 245 245 244 244 243 242 242 241 241 241 241 241 241 241 241 241 241 240 239 239 238 238 239 239 240 241 240 240 239 239 239 239 239 239 239 239 239 239 239 239
275 275 276 276 276 276 276 276 277 277 276 275 275 274 273 272 271 270 269 269 269 268 268 267 266 264 262 260 257 254 250 248 246 244 243 243 243 244 244 244 245 245 245 246 245 245 245 245 245 244 243 242 241 241 240 240 241 241 241 241 241 241 240 240 240 239 239 238 238 239 240 240 241 240 240 240 239 239 239 239 239 239 239 239 239 239
274 274 274 275 275 275 275 275 275 275 275 275 275 274 273 272 271 270 270 269 269 269 268 268 267 266 264 262 259 256 253 251 249 246 245 244 244 244 245 245 245 246 246 246 246 245 245 245 244 244 243 243 242 241 241 240 240 241 241 241 241 241 240 240 240 240 239 239 239 239 239 240 240 240 240 240 240 240 239 239 239 239 239 239 239 239
273 273 273 274 274 274 274 274 274 274 274 274 274 273 273 272 271 271 270 270 269 269 268 268 267 267 266 264 262 259 257 254 252 249 247 245 245 245 245 245 246 246 247 247 246 246 246 245 244 243 243 243 242 242 241 241 240 240 241 241 241 240 240 240 240 240 239 239 239 239 239 240 240 240 241 241 240 240 240 240 240 240 240 240 239 239
273 273 273 273 273 273 273 273 273 273 273 273 273 273 272 272 271 271 270 270 269 269 268 268 268 267 267 265 264 261 259 257 255 252 249 248 247 247 247 246 247 247 247 247 247 246 246 246 245 243 242 242 242 242 242 241 241 241 241 241 240 240 240 240 240 239 239 239 239 239 239 240 240 240 241 241 241 241 240 240 240 240 241 240 240 240
Height
3057 3056 3055 3054 3054 3053 3053 3053 3052 3052 3052 3051 3051 3050 3050 3050 3049 3049 3049 3048 3048 3048 3047 3047 3047 3047 3048 3048 3048 3048 3048 3049 3049 3049 3049 3050 3051 3051 3052 3052 3053 3054 3054 3054 3056 3059 3061 3062 3064 3066 3069 3071 3074 3077 3079 3081 3083 3085 3087 3089 3091 3094 3095 3097 3098 3099 3100 3102 3103 3105 3106 3108 3109 3111 3112 3114 3116 3117 3119 3120 3121 3123 3124 3125 3127 3128
3056 3055 3055 3054 3053 3052 3052 3051 3051 3051 3050 3050 3050 3049 3049 3049 3048 3048 3048 3048 3047 3047 3046 3045 3045 3045 3046 3046 3046 3046 3046 3046 3047 3047 3047 3047 3048 3050 3050 3050 3050 3051 3051 3052 3053 3055 3058 3060 3062 3063 3065 3068 3070 3073 3076 3078 3080 3082 3084 3086 3088 3090 3093 3095 3096 3097 3098 3099 3101 3102 3104 3105 3107 3108 3110 3111 3113 3114 3116 3117 3118 3120 3121 3123 3124 3125
3055 3054 3054 3053 3052 3051 3050 3050 3050 3050 3049 3049 3048 3048 3047 3047 3047 3047 3047 3047 3046 3046 3045 3045 3045 3044 3044 3044 3045 3045 3044 3044 3045 3046 3045 3045 3046 3047 3048 3048 3048 3048 3048 3049 3051 3053 3055 3058 3060 3061 3062 3064 3067 3070 3072 3075 3078 3080 3081 3083 3085 3086 3089 3091 3093 3094 3095 3096 3098 3100 3101 3102 3104 3105 3107 3108 3110 3111 3113 3114 3115 3117 3118 3120 3121 3122
3053 3053 3052 3052 3051 3050 3049 3049 3048 3048 3048 3048 3047 3047 3046 3046 3045 3045 3045 3045 3045 3045 3045 3044 3044 3043 3042 3042 3042 3043 3042 3042 3043 3044 3044 3045 3045 3045 3046 3046 3046 3046 3046 3046 3048 3050 3053 3055 3058 3060 3060 3062 3065 3067 3069 3072 3074 3076 3078 3080 3081 3083 3085 3088 3090 3091 3093 3094 3095 3097 3098 3100 3101 3103 3104 3105 3107 3109 3110 3111 3112 3114 3115 3117 3118 3119
3052 3051 3051 3050 3050 3049 3048 3047 3047 3046 3046 3046 3046 3046 3045 3045 3044 3044 3044 3044 3044 3044 3043 3043 3042 3042 3041 3040 3040 3040 3041 3041 3041 3042 3042 3043 3043 3043 3044 3045 3045 3045 3045 3045 3045 3047 3049 3052 3055 3057 3059 3061 3063 3065 3066 3068 3070 3073 3075 3077 3079 3080 3083 3085 3086 3088 3090 3092 3093 3094 3095 3097 3098 3100 3101 3103 3104 3105 3107 3108 3110 3111 3112 3114 3115 3116
3051 3050 3050 3049 3048 3048 3047 3046 3045 3045 3045 3045 3045 3045 3045 3044 3043 3043 3042 3042 3042 3042 3042 3042 3041 3040 3040 3039 3038 3038 3039 3039 3040 3040 3040 3040 3040 3040 3042 3043 3043 3044 3044 3044 3044 3045 3046 3048 3051 3054 3057 3059 3061 3062 3064 3065 3067 3069 3071 3073 3075 3078 3080 3081 3083 3085 3087 3089 3090 3091 3092 3094 3095 3097 3099 3100 3101 3103 3104 3105 3106 3108 3109 3111 3112 3114
3050 3050 3049 3048 3047 3047 3046 3045 3044 3043 3043 3043 3043 3043 3043 3043 3043 3042 3041 3040 3040 3040 3040 3040 3040 3039 3039 3038 3037 3037 3036 3037 3037 3038 3038 3038 3038 3039 3040 3040 3041 3041 3042 3043 3043 3044 3044 3045 3047 3050 3053 3056 3058 3060 3061 3062 3064 3065 3067 3070 3072 3074 3076 3078 3080 3081 3083 3085 3087 3089 3090 3091 3093 3094 3096 3097 3099 3100 3101 3102 3104 3105 3106 3108 3109 3110
3049 3048 3048 3047 3046 3046 3045 3045 3043 3042 3041 3041 3040 3041 3041 3041 3041 3041 3040 3040 3039 3038 3038 3039 3038 3038 3037 3037 3036 3036 3035 3034 3035 3035 3036 3036 3036 3037 3038 3039 3039 3039 3040 3041 3042 3043 3043 3043 3045 3047 3049 3052 3054 3056 3057 3059 3061 3062 3064 3066 3068 3070 3072 3075 3076 3078 3080 3081 3084 3086 3088 3089 3090 3091 3093 3094 3096 3097 3098 3100 3100 3102 3103 3105 3106 3108
3047 3046 3046 3046 3045 3045 3044 3044 3043 3042 3040 3040 3039 3039 3039 3039 3039 3040 3040 3039 3038 3037 3036 3036 3036 3036 3036 3035 3035 3035 3034 3033 3033 3033 3034 3035 3035 3036 3037 3037 3037 3037 3038 3039 3040 3041 3041 3042 3042 3044 3046 3048 3050 3052 3054 3055 3057 3059 3061 3063 3065 3066 3068 3070 3073 3075 3077 3078 3080 3082 3084 3086 3087 3088 3090 3091 3093 3094 3095 3097 3098 3099 3100 3102 3104 3105
3045 3045 3045 3044 3044 3043 3042 3042 3041 3041 3040 3039 3038 3037 3036 3036 3036 3037 3037 3038 3037 3036 3035 3034 3034 3034 3034 3034 3034 3033 3033 3032 3032 3032 3032 3033 3034 3034 3035 3035 3035 3035 3036 3037 3038 3039 3040 3040 3040 3041 3043 3044 3045 3047 3049 3051 3053 3055 3057 3059 3061 3063 3065 3067 3069 3072 3074 3075 3077 3079 3081 3083 3084 3085 3086 3088 3090 3091 3093 3094 3095 3096 3097 3099 3100 3102
3044 3043 3043 3042 3042 3042 3041 3040 3040 3039 3039 3038 3037 3036 3035 3035 3034 3034 3035 3035 3035 3035 3035 3034 3033 3032 3032 3032 3032 3032 3031 3031 3030 3030 3030 3031 3032 3032 3032 3033 3033 3033 3034 3035 3035 3036 3037 3038 3038 3039 3040 3041 3042 3043 3044 3046 3048 3050 3052 3055 3058 3060 3061 3064 3066 3068 3070 3072 3074 3075 3077 3079 3081 3082 3084 3085 3087 3088 3090 3091 3092 3093 3094 3096 3097 3099
3042 3041 3041 3041 3040 3040 3039 3039 3038 3038 3037 3037 3036 3035 3035 3034 3033 3032 3032 3032 3033 3033 3033 3033 3032 3031 3030 3030 3030 3030 3030 3029 3029 3029 3029 3029 3030 3030 3030 3030 3030 3031 3032 3032 3033 3034 3035 3036 3036 3037 3037 3038 3039 3040 3040 3041 3043 3045 3047 3050 3054 3056 3058 3060 3062 3065 3067 3069 3070 3072 3074 3075 3077 3079 3081 3082 3084 3085 3086 3088 3089 3090 3091 3093 3094 3096
3040 3039 3039 3039 3038 3038 3037 3037 3036 3036 3035 3035 3034 3034 3033 3033 3032 3031 3031 3030 3030 3030 3031 3031 3031 3030 3029 3028 3028 3028 3028 3027 3027 3027 3027 3027 3027 3028 3029 3029 3029 3030 3030 3030 3031 3032 3032 3033 3034 3035 3035 3036 3036 3037 3038 3038 3040 3042 3044 3046 3049 3052 3055 3056 3058 3061 3064 3065 3067 3068 3070 3072 3074 3076 3077 3079 3080 3082 3084 3085 3086 3087 3089 3090 3091 3093
3038 3037 3037 3037 3036 3036 3035 3035 3035 3034 3034 3033 3033 3032 3031 3031 3030 3030 3029 3029 3029 3028 3028 3029 3029 3029 3028 3027 3026 3026 3026 3025 3025 3025 3025 3025 3025 3025 3026 3027 3028 3028 3029 3029 3029 3030 3030 3031 3032 3033 3034 3034 3034 3035 3036 3037 3038 3040 3041 3043 3045 3047 3050 3053 3055 3057 3060 3061 3063 3065 3066 3068 3070 3072 3073 3075 3077 3079 3081 3083 3084 3085 3085 3087 3088 3090
3035 3035 3034 3034 3034 3034 3033 3033 3032 3032 3031 3031 3030 3030 3030 3029 3029 3028 3027 3027 3026 3026 3026 3026 3027 3027 3027 3026 3025 3024 3024 3024 3024 3023 3023 3022 3022 3022 3023 3024 3025 3026 3027 3027 3027 3028 3028 3029 3030 3031 3032 3033 3033 3033 3034 3036 3037 3038 3039 3040 3042 3044 3046 3048 3051 3054 3056 3058 3060 3061 3063 3064 3066 3067 3069 3071 3073 3075 3077 3080 3082 3082 3082 3084 3085 3087
3031 3031 3031 3031 3031 3031 3030 3030 3030 3030 3029 3029 3028 3028 3028 3027 3027 3026 3025 3025 3024 3024 3024 3024 3025 3025 3025 3025 3024 3022 3021 3021 3022 3022 3020 3020 3020 3020 3020 3021 3022 3024 3025 3025 3025 3026 3026 3027 3028 3029 3030 3031 3032 3032 3033 3034 3035 3036 3036 3037 3039 3040 3043 3045 3048 3050 3053 3055 3057 3058 3059 3060 3062 3064 3065 3067 3069 3071 3073 3076 3079 3080 3079 3080 3082 3084
3027 3027 3027 3027 3028 3028 3028 3027 3027 3027 3026 3026 3026 3026 3025 3025 3025 3024 3024 3023 3022 3022 3022 3022 3022 3022 3023 3024 3023 3022 3020 3019 3019 3019 3019 3019 3018 3017 3017 3018 3019 3020 3021 3023 3023 3024 3024 3025 3025 3026 3027 3028 3029 3030 3031 3032 3032 3032 3033 3034 3035 3036 3039 3041 3043 3046 3048 3050 3052 3054 3055 3057 3058 3060 3061 3063 3065 3067 3069 3071 3074 3076 3075 3077 3079 3081
3022 3023 3023 3023 3024 3024 3024 3024 3024 3024 3024 3023 3023 3023 3023 3023 3022 3022 3021 3021 3020 3020 3019 3019 3019 3020 3020 3021 3021 3020 3019 3018 3017 3017 3017 3017 3016 3015 3015 3015 3016 3017 3018 3020 3020 3021 3022 3022 3023 3024 3025 3026 3026 3027 3028 3029 3029 3030 3030 3031 3032 3033 3035 3036 3039 3041 3043 3045 3047 3049 3051 3053 3055 3057 3058 3060 3061 3063 3065 3067 3069 3070 3071 3074 3076 3078
3017 3018 3018 3019 3019 3019 3020 3020 3020 3020 3020 3020 3020 3020 3020 3020 3020 3020 3019 3019 3018 3017 3017 3017 3016 3017 3017 3018 3019 3019 3018 3016 3015 3015 3015 3015 3015 3014 3013 3013 3013 3014 3015 3016 3018 3019 3020 3020 3021 3021 3022 3023 3024 3025 3025 3026 3027 3027 3028 3028 3029 3030 3031 3033 3035 3037 3039 3041 3043 3045 3047 3049 3051 3053 3055 3056 3058 3060 3061 3063 3064 3066 3068 3070 3073 3075
3012 3013 3013 3014 3014 3014 3015 3016 3016 3017 3017 3017 3017 3017 3017 3017 3017 3017 3016 3016 3015 3015 3015 3014 3014 3014 3014 3015 3016 3016 3015 3014 3013 3013 3013 3013 3013 3012 3012 3011 3010 3011 3012 3013 3014 3015 3017 3018 3019 3020 3020 3021 3021 3022 3023 3024 3024 3025 3025 3026 3027 3028 3029 3029 3031 3033 3035 3037 3039 3041 3043 3045 3047 3049 3050 3052 3054 3056 3058 3060 3061 3063 3064 3066 3069 3071
3007 3008 3008 3009 3009 3009 3010 3011 3012 3012 3013 3013 3013 3013 3013 3013 3013 3013 3013 3013 3013 3012 3012 3012 3011 3011 3011 3012 3013 3013 3013 3012 3011 3010 3010 3011 3012 3012 3010 3010 3009 3008 3009 3010 3010 3012 3013 3015 3016 3017 3018 3019 3019 3020 3020 3021 3022 3022 3023 3024 3025 3026 3026 3027 3028 3029 3031 3033 3035 3037 3039 3041 3043 3044 3046 3047 3049 3050 3052 3055 3057 3059 3060 3062 3064 3066
3002 3003 3003 3004 3004 3004 3005 3006 3007 3007 3008 3009 3009 3009 3010 3010 3010 3010 3010 3010 3009 3009 3009 3009 3009 3009 3009 3009 3010 3010 3010 3009 3008 3008 3008 3009 3010 3010 3009 3008 3007 3007 3006 3006 3007 3008 3010 3011 3012 3014 3015 3016 3017 3018 3018 3018 3019 3020 3021 3021 3022 3022 3023 3025 3025 3026 3027 3029 3030 3033 3035 3037 3039 3040 3042 3043 3045 3046 3048 3049 3051 3053 3055 3056 3058 3061
2997 2998 2998 2999 2999 2999 3000 3001 3001 3002 3003 3004 3005 3005 3005 3006 3005 3005 3006 3006 3006 3006 3006 3006 3006 3006 3006 3006 3006 3007 3007 3006 3006 3005 3005 3006 3007 3008 3008 3007 3006 3005 3005 3004 3004 3005 3006 3008 3009 3010 3011 3013 3014 3015 3016 3017 3017 3017 3018 3019 3019 3020 3020 3021 3022 3023 3025 3026 3027 3029 3032 3034 3036 3037 3039 3040 3041 3043 3045 3046 3047 3048 3050 3051 3053 3056
2993 2993 2993 2994 2994 2995 2995 2996 2996 2997 2997 2998 2999 3000 3001 3001 3002 3002 3002 3002 3002 3002 3002 3002 3002 3003 3003 3003 3003 3004 3004 3004 3003 3003 3003 3003 3003 3004 3005 3005 3004 3004 3003 3003 3002 3003 3003 3005 3006 3007 3008 3009 3010 3011 3013 3014 3015 3016 3016 3016 3017 3018 3018 3019 3020 3020 3022 3023 3025 3026 3028 3031 3033 3034 3035 3036 3038 3039 3040 3042 3043 3044 3045 3047 3049 3052
2988 2988 2988 2989 2989 2989 2990 2990 2991 2992 2993 2993 2994 2995 2995 2996 2997 2998 2998 2999 2999 2998 2998 2998 2998 2998 2999 3000 3000 3001 3001 3001 3000 3000 3000 2999 3000 3001 3003 3003 3002 3001 3001 3001 3001 3001 3001 3002 3002 3004 3005 3005 3007 3008 3009 3010 3012 3013 3015 3015 3015 3015 3016 3016 3017 3018 3019 3020 3022 3024 3026 3028 3030 3031 3032 3033 3034 3035 3036 3037 3038 3039 3040 3042 3044 3047
2984 2984 2984 2984 2984 2984 2984 2985 2986 2987 2988 2988 2989 2989 2990 2991 2992 2993 2994 2995 2995 2995 2994 2994 2994 2994 2995 2996 2997 2998 2998 2998 2997 2997 2996 2996 2997 2998 2999 2999 2999 2999 2999 2999 3000 2999 2999 2999 3000 3000 3001 3002 3003 3004 3005 3007 3008 3009 3011 3012 3013 3014 3014 3014 3015 3016 3017 3018 3020 3022 3024 3025 3027 3028 3029 3030 3030 3031 3032 3033 3034 3035 3035 3037 3040 3043
2980 2980 2979 2979 2979 2979 2979 2980 2980 2981 2982 2983 2984 2984 2985 2985 2986 2987 2989 2990 2990 2990 2990 2990 2990 2990 2991 2992 2993 2993 2994 2995 2994 2994 2993 2993 2993 2994 2995 2996 2996 2996 2996 2997 2997 2997 2997 2997 2997 2998 2998 2998 2999 3000 3002 3003 3004 3005 3007 3008 3010 3011 3012 3012 3013 3014 3015 3015 3017 3018 3020 3022 3023 3025 3026 3027 3027 3028 3029 3030 3030 3031 3033 3035 3037 3039
2977 2976 2975 2975 2975 2975 2975 2975 2975 2976 2977 2978 2979 2980 2980 2980 2981 2982 2983 2985 2986 2986 2986 2985 2985 2986 2987 2987 2988 2989 2990 2991 2991 2991 2990 2990 2990 2990 2991 2992 2992 2993 2993 2994 2994 2995 2995 2995 2995 2996 2996 2996 2996 2997 2998 3000 3001 3002 3003 3005 3006 3007 3009 3010 3010 3011 3012 3013 3014 3015 3016 3018 3019 3021 3023 3024 3024 3025 3025 3026 3027 3029 3030 3032 3034 3036
2973 2973 2972 2971 2971 2970 2970 2970 2970 2971 2972 2973 2973 2974 2975 2975 2976 2977 2978 2980 2981 2981 2981 2981 2982 2982 2982 2982 2983 2984 2986 2987 2988 2987 2987 2987 2986 2986 2987 2989 2989 2989 2990 2990 2991 2992 2992 2993 2993 2994 2994 2994 2994 2995 2995 2996 2998 2999 3000 3001 3002 3004 3005 3006 3008 3009 3010 3010 3011 3012 3014 3015 3016 3017 3019 3020 3021 3021 3021 3022 3024 3026 3027 3029 3031 3032
2968 2968 2968 2967 2967 2966 2966 2966 2966 2966 2967 2968 2968 2969 2969 2970 2971 2972 2973 2975 2975 2976 2976 2977 2978 2978 2978 2978 2978 2979 2981 2982 2983 2984 2984 2984 2983 2983 2984 2985 2985 2985 2986 2987 2987 2988 2989 2990 2990 2991 2991 2992 2992 2993 2993 2994 2995 2996 2997 2998 2999 3000 3001 3002 3004 3005 3006 3008 3009 3010 3011 3012 3013 3014 3015 3016 3018 3018 3019 3019 3020 3022 3023 3024 3026 3027
2963 2963 2963 2963 2963 2962 2962 2962 2962 2962 2962 2963 2964 2964 2964 2965 2966 2967 2968 2969 2970 2970 2971 2972 2973 2974 2974 2974 2974 2974 2975 2977 2979 2980 2981 2980 2979 2979 2981 2982 2981 2981 2982 2983 2984 2984 2985 2986 2988 2988 2989 2989 2990 2990 2991 2991 2992 2993 2994 2995 2996 2997 2998 2999 3000 3001 3003 3004 3006 3007 3008 3009 3010 3011 3012 3013 3014 3015 3016 3017 3019 3019 3020 3020 3021 3022
2958 2958 2959 2959 2959 2959 2958 2958 2957 2957 2958 2958 2959 2959 2960 2960 2961 2962 2963 2964 2965 2965 2966 2967 2968 2969 2969 2969 2969 2969 2970 2972 2975 2976 2977 2976 2975 2975 2977 2978 2978 2978 2979 2980 2980 2980 2981 2982 2984 2985 2986 2986 2986 2987 2987 2988 2989 2990 2990 2991 2992 2993 2994 2995 2996 2998 2999 3000 3002 3004 3005 3006 3008 3009 3010 3011 3012 3013 3014 3015 3017 3018 3018 3018 3018 3019
2953 2953 2954 2954 2954 2955 2955 2954 2954 2954 2953 2954 2954 2955 2955 2955 2956 2957 2958 2959 2960 2960 2961 2962 2962 2963 2964 2965 2965 2965 2966 2968 2970 2971 2971 2971 2971 2972 2974 2974 2974 2974 2975 2976 2976 2976 2977 2978 2980 2982 2982 2983 2983 2983 2984 2985 2985 2986 2987 2988 2989 2990 2991 2992 2993 2994 2995 2996 2998 3000 3001 3003 3005 3006 3007 3008 3009 3010 3011 3013 3014 3015 3016 3016 3016 3016
2949 2949 2949 2949 2950 2950 2950 2950 2950 2950 2950 2950 2950 2950 2950 2951 2951 2952 2953 2954 2955 2955 2956 2956 2957 2958 2959 2960 2960 2961 2962 2964 2964 2965 2965 2966 2967 2968 2969 2970 2970 2970 2971 2972 2972 2973 2974 2975 2976 2977 2978 2979 2980 2980 2981 2981 2982 2983 2983 2985 2985 2986 2987 2989 2990 2990 2991 2993 2994 2996 2997 2999 3000 3002 3004 3005 3006 3008 3009 3010 3011 3012 3013 3014 3014 3015
2945 2945 2944 2945 2945 2945 2946 2946 2946 2946 2946 2946 2945 2946 2946 2946 2947 2948 2948 2949 2949 2950 2950 2951 2952 2953 2954 2955 2955 2956 2958 2959 2959 2959 2960 2961 2962 2963 2965 2965 2966 2966 2967 2968 2968 2969 2970 2970 2972 2973 2974 2975 2976 2977 2978 2978 2979 2979 2980 2981 2982 2983 2984 2985 2986 2987 2988 2989 2991 2992 2994 2995 2997 2998 3000 3001 3003 3004 3006 3007 3008 3009 3010 3011 3012 3012
2941 2941 2940 2941 2941 2941 2941 2942 2942 2943 2943 2942 2942 2942 2942 2942 2942 2943 2944 2944 2944 2945 2945 2946 2947 2948 2949 2950 2950 2952 2953 2954 2955 2955 2956 2956 2957 2959 2960 2961 2962 2963 2963 2964 2964 2965 2966 2966 2967 2968 2970 2971 2972 2974 2975 2975 2975 2976 2977 2978 2979 2980 2980 2981 2982 2984 2985 2986 2987 2989 2990 2991 2993 2995 2996 2998 2999 3001 3002 3004 3005 3006 3007 3008 3009 3010
2938 2937 2937 2937 2937 2937 2937 2938 2938 2939 2939 2939 2939 2938 2938 2938 2938 2938 2939 2939 2940 2940 2940 2941 2942 2943 2944 2945 2945 2947 2948 2949 2950 2950 2951 2951 2952 2954 2955 2956 2957 2959 2960 2960 2960 2960 2962 2962 2963 2964 2965 2966 2968 2970 2971 2972 2973 2973 2974 2974 2975 2976 2977 2978 2979 2980 2981 2983 2984 2985 2986 2988 2989 2990 2992 2994 2996 2997 2999 3000 3001 3002 3004 3005 3005 3006
2934 2934 2934 2934 2934 2934 2934 2934 2934 2935 2935 2935 2935 2935 2934 2934 2934 2934 2935 2935 2935 2935 2936 2936 2937 2938 2939 2940 2940 2942 2943 2944 2945 2945 2945 2946 2947 2949 2950 2951 2953 2954 2955 2955 2955 2956 2957 2958 2959 2960 2961 2962 2963 2965 2967 2969 2969 2970 2970 2970 2971 2972 2974 2975 2975 2977 2978 2980 2981 2982 2983 2985 2985 2987 2988 2990 2992 2994 2995 2996 2997 2999 3000 3001 3002 3003
2931 2930 2930 2930 2930 2930 2930 2930 2930 2931 2932 2932 2932 2931 2930 2930 2930 2930 2930 2931 2931 2931 2932 2932 2932 2933 2934 2935 2936 2937 2938 2940 2940 2940 2940 2941 2942 2944 2945 2946 2948 2949 2950 2951 2951 2952 2953 2954 2955 2955 2956 2958 2960 2961 2963 2965 2965 2966 2966 2967 2968 2969 2970 2971 2972 2973 2975 2976 2977 2979 2980 2981 2982 2984 2985 2986 2988 2990 2991 2992 2994 2995 2996 2997 2998 3000
2927 2927 2927 2927 2927 2927 2927 2927 2927 2927 2928 2928 2928 2927 2927 2926 2926 2926 2926 2927 2927 2927 2927 2927 2928 2928 2929 2930 2931 2932 2933 2934 2935 2935 2936 2937 2938 2939 2940 2941 2943 2944 2945 2946 2947 2948 2949 2949 2950 2951 2953 2954 2955 2957 2959 2960 2961 2962 2963 2964 2965 2966 2966 2967 2969 2970 2971 2972 2974 2975 2976 2978 2979 2980 2982 2983 2985 2986 2987 2989 2990 2991 2992 2993 2994 2995
2924 2924 2924 2924 2924 2924 2924 2924 2923 2923 2924 2924 2924 2923 2923 2923 2923 2923 2923 2923 2923 2923 2923 2923 2923 2923 2924 2925 2926 2927 2928 2929 2930 2931 2932 2932 2933 2934 2935 2936 2938 2939 2941 2942 2942 2943 2944 2945 2946 2947 2949 2950 2951 2953 2954 2956 2957 2959 2960 2961 2961 2962 2962 2964 2965 2966 2967 2969 2970 2971 2973 2974 2976 2977 2978 2980 2981 2982 2984 2985 2986 2988 2988 2989 2990 2991
2921 2921 2920 2920 2920 2921 2920 2920 2920 2920 2920 2920 2920 2920 2920 2920 2920 2919 2919 2919 2919 2919 2919 2919 2919 2919 2919 2920 2921 2922 2924 2925 2926 2927 2927 2928 2929 2929 2930 2931 2933 2934 2936 2937 2938 2939 2940 2940 2942 2943 2945 2946 2947 2948 2950 2952 2954 2955 2956 2957 2957 2958 2960 2961 2962 2963 2964 2965 2966 2967 2969 2970 2972 2973 2975 2976 2977 2978 2980 2981 2983 2984 2985 2986 2986 2987
2918 2917 2917 2917 2917 2917 2917 2916 2916 2916 2916 2916 2916 2916 2916 2916 2916 2916 2915 2915 2915 2915 2915 2915 2915 2915 2915 2915 2916 2918 2920 2920 2921 2922 2923 2924 2925 2925 2926 2927 2928 2929 2931 2932 2933 2934 2935 2936 2938 2939 2940 2942 2943 2944 2945 2947 2949 2951 2952 2953 2954 2955 2957 2958 2959 2959 2960 2961 2962 2964 2965 2966 2968 2969 2970 2972 2974 2975 2976 2977 2979 2980 2981 2982 2983 2984
2914 2914 2914 2914 2914 2913 2913 2913 2913 2913 2912 2912 2912 2912 2913 2913 2913 2913 2912 2911 2911 2911 2911 2911 2911 2910 2910 2910 2912 2913 2915 2916 2917 2918 2919 2919 2920 2921 2921 2922 2923 2925 2926 2927 2928 2929 2930 2932 2934 2935 2936 2938 2939 2940 2941 2943 2945 2947 2948 2949 2950 2952 2953 2953 2955 2956 2957 2958 2959 2960 2961 2962 2963 2965 2966 2968 2970 2971 2972 2973 2975 2976 2977 2978 2980 2981
2910 2910 2910 2910 2910 2910 2909 2909 2909 2909 2909 2909 2909 2909 2909 2910 2910 2909 2908 2908 2907 2907 2908 2908 2907 2907 2906 2906 2907 2909 2910 2911 2913 2914 2914 2915 2916 2916 2917 2918 2919 2920 2921 2922 2923 2925 2926 2928 2929 2930 2932 2933 2935 2935 2937 2939 2940 2942 2944 2945 2946 2947 2948 2950 2951 2953 2954 2954 2955 2956 2957 2958 2959 2961 2962 2964 2965 2966 2968 2969 2970 2972 2973 2974 2975 2977
2907 2907 2906 2906 2906 2906 2905 2905 2905 2905 2905 2905 2905 2905 2906 2906 2906 2905 2905 2904 2904 2904 2904 2904 2903 2903 2902 2902 2903 2905 2906 2907 2908 2909 2910 2911 2911 2912 2913 2914 2915 2915 2916 2917 2919 2920 2922 2923 2925 2926 2928 2929 2930 2931 2933 2935 2936 2938 2940 2941 2943 2944 2945 2946 2948 2949 2950 2950 2951 2952 2953 2954 2955 2957 2958 2959 2960 2962 2964 2965 2966 2968 2969 2970 2971 2973
2903 2903 2903 2903 2902 2902 2902 2902 2902 2902 2901 2901 2901 2902 2902 2902 2902 2902 2901 2900 2900 2900 2900 2900 2900 2900 2899 2899 2900 2901 2903 2903 2904 2904 2905 2906 2907 2908 2909 2910 2910 2911 2912 2913 2914 2915 2917 2919 2920 2922 2924 2925 2926 2927 2928 2930 2932 2934 2936 2937 2939 2940 2941 2942 2944 2945 2946 2947 2948 2949 2949 2950 2951 2952 2953 2955 2956 2958 2960 2961 2962 2964 2965 2966 2967 2969
2900 2900 2900 2899 2899 2899 2899 2898 2898 2898 2898 2898 2898 2898 2899 2899 2899 2898 2897 2897 2897 2897 2896 2896 2896 2896 2895 2895 2896 2897 2898 2899 2899 2900 2901 2902 2903 2904 2904 2905 2906 2907 2908 2909 2910 2911 2912 2914 2915 2917 2919 2920 2921 2922 2924 2927 2929 2930 2931 2933 2935 2936 2937 2938 2940 2941 2942 2944 2945 2945 2946 2946 2947 2948 2949 2950 2952 2954 2955 2956 2958 2959 2960 2962 2963 2965
2896 2896 2896 2896 2895 2895 2895 2895 2895 2895 2895 2894 2894 2895 2895 2895 2895 2895 2894 2893 2894 2894 2893 2893 2892 2892 2892 2892 2893 2894 2894 2895 2895 2896 2897 2898 2899 2899 2900 2901 2902 2903 2904 2905 2905 2906 2908 2909 2910 2912 2914 2915 2917 2918 2920 2923 2925 2926 2927 2929 2930 2932 2933 2935 2936 2938 2939 2940 2940 2941 2942 2942 2943 2944 2945 2947 2948 2950 2951 2952 2954 2955 2957 2958 2959 2960
2893 2893 2892 2892 2892 2892 2891 2891 2892 2891 2891 2891 2891 2891 2891 2891 2891 2891 2890 2890 2890 2890 2890 2889 2889 2889 2888 2889 2889 2890 2890 2891 2891 2892 2893 2894 2894 2895 2896 2897 2898 2899 2900 2900 2901 2902 2903 2904 2905 2907 2909 2911 2913 2915 2917 2919 2921 2922 2923 2925 2926 2928 2929 2930 2932 2934 2935 2936 2936 2937 2938 2939 2939 2940 2941 2943 2944 2945 2946 2948 2950 2951 2953 2954 2955 2956
2889 2889 2889 2889 2888 2888 2888 2888 2888 2888 2888 2888 2888 2888 2887 2887 2887 2887 2887 2887 2886 2886 2886 2885 2885 2885 2885 2885 2886 2886 2887 2887 2888 2888 2889 2889 2890 2891 2892 2893 2894 2895 2896 2896 2897 2898 2899 2900 2901 2902 2904 2907 2909 2911 2913 2915 2916 2918 2920 2921 2922 2924 2925 2927 2928 2930 2931 2932 2932 2933 2934 2935 2936 2936 2938 2939 2940 2941 2943 2945 2946 2947 2948 2950 2951 2953